Terminal Aerodrome Forecast
Issued by NWS

Home | Current Version | Previous Version | Graphics & Text | Print | Product List | Glossary Off
Versions: 1 2 3 4 5 6 7 8 9 10 11 12 13 14 15 16

328
FTUS41 KCLE 202330
TAFFDY
TAF
KFDY 202330Z 2100/2124 06008KT P6SM SCT050
     FM210300 06008KT P6SM BKN060
     FM211800 09008KT P6SM VCTS BKN035CB OVC045
     FM212300 07008KT 5SM -TSRA BKN030CB OVC045=

USA.gov is the U.S. government's official web portal to all federal, state and local government web resources and services.